Regional Weather Roundup
Issued by NWS Green Bay, WI

Home | Current Version | Previous Version | Graphics & Text | Print | Product List | Glossary Off
Versions: 1 2 3 4 5 6 7 8 9 10 11 12 13 14 15 16 17 18 19 20 21 22 23 24 25 26 27 28 29 30 31 32 33 34 35 36 37 38 39 40 41 42 43 44 45 46 47 48 49 50

000
ASUS43 KGRB 051800
RWRGRB

NORTH-CENTRAL AND NORTHEAST WISCONSIN REGIONAL WEATHER ROUNDUP
NATIONAL WEATHER SERVICE GREEN BAY WI
100 PM CDT SUN JUL 05 2015

WIZ005-009-010>012-018-019-051900-
NORTH CENTRAL WISCONSIN

CITY           SKY/WX    TMP DP  RH WIND       PRES   REMARKS
IRONWOOD       PTSUNNY   79  61  53 S14G20    29.90S
MANITOWISH WTR NOT AVBL
ARBOR VITAE    NOT AVBL
EAGLE RIVER    NOT AVBL
LAND O LAKES   NOT AVBL
RHINELANDER    SUNNY     79  57  46 S17G23    30.01F
PHILLIPS       MOSUNNY   78  62  56 S14       29.97F
ANTIGO         NOT AVBL
TOMAHAWK       NOT AVBL
MERRILL        NOT AVBL
$$

WIZ013-073-051900-
NORTHEAST WISCONSIN

CITY           SKY/WX    TMP DP  RH WIND       PRES   REMARKS
IRON MOUNTAIN  MOSUNNY   81  61  50 S16       29.99F
MARINETTE      SUNNY     79  63  57 SW14      30.01S
$$

WIZ017-030-035>037-045-051900-
CENTRAL WISCONSIN

CITY           SKY/WX    TMP DP  RH WIND       PRES   REMARKS
MEDFORD        NOT AVBL
WAUSAU         MOSUNNY   80  58  46 S12G21    30.00F
MOSINEE        MOSUNNY   77  63  61 S12G17    30.03F
MARSHFIELD     MOSUNNY   80  60  50 S10G18    30.01S
WISC RAPIDS    MOSUNNY   80  60  50 SW9       30.03F
STEVENS POINT  NOT AVBL
WAUPACA        NOT AVBL
SHAWANO        NOT AVBL
CLINTONVILLE   MOSUNNY   81  59  47 S10       30.02F
$$

WIZ038-039-048-051-051900-
FOX VALLEY

CITY           SKY/WX    TMP DP  RH WIND       PRES   REMARKS
NWS GREEN BAY  SUNNY     81  62  52 SW9       30.03F
APPLETON       PTSUNNY   79  59  50 SW12      30.05F
OSHKOSH        MOSUNNY   79  63  57 S14G21    30.04F
FOND DU LAC    MOSUNNY   79  62  56 S12       30.05F
$$

WIZ022-050-052-051900-
EAST CENTRAL WISCONSIN

CITY           SKY/WX    TMP DP  RH WIND       PRES   REMARKS
STURGEON BAY   SUNNY     77  64  65 S12       30.06S
MANITOWOC      NOT AVBL
SHEBOYGAN      PTSUNNY   79  64  60 S10       30.06F
$$

LMZ563-521-522-541>543-051900-
LAKESHORE

STATION/POSITION TIME  TEMP    WIND        PRES    VSBY  WAVE
                       AIR SEA DIR/SP/G                  HT/PER
                 (UTC) (F)     (DEG/KT/KT) (MB)    (MI)  (FT/S)
SHEBOYGAN LKSHOR 1700   63     160/ 13/ 13 1018.4S
KEWAUNEE LKSHORE 1700   63     180/ 10/ 11 1017.2F
ALGOMA MARINA    1711          200/ 10/ 11   N/A
NORTHPORT PIER   1700   67     150/  8/ 10 1016.6F
N MID LAKE BUOY  1650   54 49  200/ 14/ 16 1017.3F         2/ 3
S GREEN BAY BUOY 1700   73 70  210/  8/ 10 1018.3
CHAMBERS ISLAND  1700   76     150/  4/  9 1016.6F
MENOMINEE LKSHOR 1700   73     170/  9/ 11 1017.2F
$$



USA.gov is the U.S. government's official web portal to all federal, state and local government web resources and services.